Back to catalog

STARLINK-11592

AliveCommunicationsVLEO
NORAD 63560·PAYLOAD·🇺🇸 United States

Launched Apr 13, 2025 from Cape Canaveral Space Force Station

Loading…

Next Passes (next 24 hours)

TLE

FreshSource: CelesTrak SupGP

Epoch: Sep 14, 2026, 21:31 UTC

1 63560C 25075N   26257.89701389  .00005070  00000+0  39400-4 0  2574
2 63560  43.0008  93.1822 0001668 276.7591 224.6757 15.70820998    13

Track STARLINK-11592 in real time with AllMySat

Download on the App Store